JAT3203 SAVC-SAWH

Flight info

Callsign JAT3203
Flight time 1h 34m
Altitude 35000
Route BODUN DCT SJU UW45 GRA T108 DABLI
Aircraft A21N/M-SDE3FGHIRWY/LB1

Departure

Time 2026-04-25 11:50
Airport General Enrique Mosconi International Airport (SAVC)

Arrival

Time 2026-04-25 13:25
Airport Ushuaia - Malvinas Argentinas International Airport (SAWH)
Time Latitude Longitude Altitude Speed Heading
2026-04-25 11:29 -45.78950 -67.46858 176 ft 0 kts 204°
2026-04-25 11:42 -45.78947 -67.46857 175 ft 1 kts 204°
2026-04-25 11:43 -45.78939 -67.46851 175 ft 2 kts 191°
2026-04-25 11:43 -45.78924 -67.46853 175 ft 2 kts 154°
2026-04-25 11:43 -45.78912 -67.46866 175 ft 2 kts 122°
2026-04-25 11:43 -45.78907 -67.46884 176 ft 0 kts 92°
2026-04-25 11:44 -45.78907 -67.46892 176 ft 1 kts 85°
2026-04-25 11:44 -45.78908 -67.46896 176 ft 0 kts 87°
2026-04-25 11:45 -45.78907 -67.46881 175 ft 4 kts 87°
2026-04-25 11:46 -45.78903 -67.46825 173 ft 4 kts 68°
2026-04-25 11:46 -45.78861 -67.46793 172 ft 10 kts
2026-04-25 11:46 -45.78767 -67.46790 169 ft 15 kts 30°
2026-04-25 11:46 -45.78737 -67.46639 162 ft 20 kts 77°
2026-04-25 11:47 -45.78699 -67.46379 154 ft 32 kts 80°
2026-04-25 11:47 -45.78654 -67.46019 143 ft 41 kts 79°
2026-04-25 11:47 -45.78599 -67.45601 132 ft 42 kts 79°
2026-04-25 11:47 -45.78544 -67.45186 121 ft 42 kts 78°
2026-04-25 11:48 -45.78473 -67.44866 112 ft 25 kts 28°
2026-04-25 11:48 -45.78414 -67.44833 110 ft 3 kts 17°
2026-04-25 11:48 -45.78395 -67.44824 110 ft 2 kts 16°
2026-04-25 11:48 -45.78383 -67.44822 109 ft 1 kts
2026-04-25 11:49 -45.78368 -67.44821 109 ft 4 kts
2026-04-25 11:49 -45.78329 -67.44820 109 ft 7 kts
2026-04-25 11:49 -45.78298 -67.44870 110 ft 14 kts 251°
2026-04-25 11:49 -45.78363 -67.45345 123 ft 84 kts 258°
2026-04-25 11:50 -45.78515 -67.46471 157 ft 143 kts 260°
2026-04-25 11:50 -45.78718 -67.47961 641 ft 155 kts 263°
2026-04-25 11:50 -45.78959 -67.49409 1431 ft 156 kts 253°
2026-04-25 11:50 -45.79436 -67.50787 2090 ft 159 kts 245°
2026-04-25 11:51 -45.80008 -67.52224 2400 ft 173 kts 249°
2026-04-25 11:51 -45.80561 -67.53816 2726 ft 188 kts 249°
2026-04-25 11:51 -45.81163 -67.55597 2994 ft 209 kts 249°
2026-04-25 11:51 -45.81813 -67.57525 3512 ft 220 kts 250°
2026-04-25 11:52 -45.82483 -67.59497 4223 ft 223 kts 247°
2026-04-25 11:52 -45.83424 -67.61335 4702 ft 244 kts 231°
2026-04-25 11:52 -45.84783 -67.62907 4864 ft 256 kts 221°
2026-04-25 11:52 -45.86271 -67.64367 4863 ft 258 kts 219°
2026-04-25 11:53 -45.87763 -67.65803 4860 ft 257 kts 220°
2026-04-25 11:53 -45.89243 -67.67242 4857 ft 256 kts 221°
2026-04-25 11:53 -45.90710 -67.68685 4857 ft 257 kts 221°
2026-04-25 11:53 -45.92174 -67.70139 4854 ft 257 kts 221°
2026-04-25 11:54 -45.93639 -67.71596 4854 ft 257 kts 221°
2026-04-25 11:54 -45.95104 -67.73056 4851 ft 256 kts 221°
2026-04-25 11:54 -45.98039 -67.75992 4838 ft 257 kts 221°
2026-04-25 11:55 -45.99536 -67.77430 4832 ft 260 kts 218°
2026-04-25 11:55 -46.01129 -67.78657 4865 ft 266 kts 212°
2026-04-25 11:55 -46.02868 -67.79743 5380 ft 273 kts 209°
2026-04-25 11:55 -46.04586 -67.80770 6251 ft 271 kts 208°
2026-04-25 11:56 -46.06325 -67.81806 7001 ft 272 kts 207°
2026-04-25 11:56 -46.08067 -67.82845 7680 ft 276 kts 207°
2026-04-25 11:56 -46.09847 -67.83909 8368 ft 279 kts 207°
2026-04-25 11:56 -46.11650 -67.84988 9052 ft 281 kts 207°
2026-04-25 11:57 -46.13461 -67.86034 9714 ft 285 kts 201°
2026-04-25 11:57 -46.15448 -67.86405 10274 ft 297 kts 180°
2026-04-25 11:57 -46.17535 -67.85807 10564 ft 315 kts 167°
2026-04-25 11:57 -46.19671 -67.84875 10978 ft 325 kts 166°
2026-04-25 11:58 -46.21828 -67.83903 11622 ft 327 kts 168°
2026-04-25 11:58 -46.24004 -67.82928 12307 ft 327 kts 169°
2026-04-25 11:58 -46.26154 -67.81988 12974 ft 327 kts 170°
2026-04-25 11:58 -46.28333 -67.81042 13619 ft 327 kts 171°
2026-04-25 11:59 -46.30484 -67.80115 14257 ft 326 kts 172°
2026-04-25 11:59 -46.32674 -67.79179 14819 ft 327 kts 172°
2026-04-25 11:59 -46.34855 -67.78251 15295 ft 330 kts 172°
2026-04-25 12:00 -46.39277 -67.76358 16303 ft 335 kts 172°
2026-04-25 12:00 -46.41512 -67.75398 16750 ft 339 kts 172°
2026-04-25 12:00 -46.46061 -67.73445 17653 ft 345 kts 172°
2026-04-25 12:01 -46.48347 -67.72460 18120 ft 347 kts 172°
2026-04-25 12:01 -46.50666 -67.71461 18516 ft 351 kts 172°
2026-04-25 12:01 -46.53029 -67.70441 18929 ft 354 kts 172°
2026-04-25 12:01 -46.55383 -67.69421 19398 ft 355 kts 172°
2026-04-25 12:02 -46.60145 -67.67354 20253 ft 360 kts 172°
2026-04-25 12:02 -46.62562 -67.66307 20684 ft 362 kts 172°
2026-04-25 12:02 -46.64959 -67.65321 21087 ft 361 kts 176°
2026-04-25 12:03 -46.67411 -67.64716 21489 ft 357 kts 183°
2026-04-25 12:03 -46.69859 -67.64555 21904 ft 352 kts 189°
2026-04-25 12:03 -46.72302 -67.64664 22316 ft 352 kts 191°
2026-04-25 12:03 -46.74768 -67.64820 22665 ft 355 kts 192°
2026-04-25 12:04 -46.77222 -67.64983 23057 ft 357 kts 192°
2026-04-25 12:04 -46.79691 -67.65144 23447 ft 358 kts 192°
2026-04-25 12:04 -46.82220 -67.65302 23815 ft 360 kts 192°
2026-04-25 12:04 -46.84719 -67.65461 24157 ft 363 kts 192°
2026-04-25 12:05 -46.87231 -67.65617 24478 ft 365 kts 193°
2026-04-25 12:05 -46.89785 -67.65776 24865 ft 366 kts 193°
2026-04-25 12:05 -46.92342 -67.65936 25187 ft 368 kts 193°
2026-04-25 12:05 -46.94906 -67.66097 25576 ft 368 kts 193°
2026-04-25 12:06 -46.97479 -67.66257 25928 ft 369 kts 193°
2026-04-25 12:06 -47.00042 -67.66415 26230 ft 371 kts 193°
2026-04-25 12:06 -47.02626 -67.66576 26551 ft 373 kts 193°
2026-04-25 12:06 -47.05229 -67.66736 26831 ft 375 kts 193°
2026-04-25 12:07 -47.07823 -67.66898 27117 ft 377 kts 193°
2026-04-25 12:07 -47.10444 -67.67061 27409 ft 378 kts 193°
2026-04-25 12:07 -47.13106 -67.67225 27699 ft 380 kts 193°
2026-04-25 12:07 -47.15742 -67.67389 27934 ft 383 kts 193°
2026-04-25 12:08 -47.18407 -67.67557 28226 ft 384 kts 193°
2026-04-25 12:08 -47.21085 -67.67723 28474 ft 387 kts 192°
2026-04-25 12:08 -47.23792 -67.67890 28756 ft 388 kts 193°
2026-04-25 12:08 -47.26482 -67.68054 29035 ft 389 kts 193°
2026-04-25 12:09 -47.29180 -67.68224 29344 ft 390 kts 193°
2026-04-25 12:09 -47.31914 -67.68394 29559 ft 392 kts 193°
2026-04-25 12:09 -47.34648 -67.68567 29792 ft 394 kts 193°
2026-04-25 12:09 -47.37361 -67.68735 30056 ft 395 kts 193°
2026-04-25 12:10 -47.40131 -67.68909 30254 ft 398 kts 193°
2026-04-25 12:10 -47.42900 -67.69085 30490 ft 400 kts 193°
2026-04-25 12:10 -47.45676 -67.69257 30728 ft 401 kts 193°
2026-04-25 12:10 -47.48432 -67.69430 30954 ft 402 kts 193°
2026-04-25 12:11 -47.51251 -67.69607 31231 ft 402 kts 193°
2026-04-25 12:11 -47.54023 -67.69779 31453 ft 404 kts 193°
2026-04-25 12:11 -47.56855 -67.69961 31610 ft 406 kts 193°
2026-04-25 12:11 -47.59665 -67.70141 31781 ft 407 kts 193°
2026-04-25 12:12 -47.62496 -67.70318 31930 ft 409 kts 193°
2026-04-25 12:12 -47.64379 -67.70440 32022 ft 410 kts 193°
2026-04-25 12:12 -47.68156 -67.70679 32289 ft 410 kts 192°
2026-04-25 12:12 -47.71008 -67.70858 32468 ft 410 kts 192°
2026-04-25 12:13 -47.73853 -67.71040 32605 ft 411 kts 192°
2026-04-25 12:13 -47.76695 -67.71219 32777 ft 412 kts 192°
2026-04-25 12:13 -47.79581 -67.71403 32940 ft 412 kts 192°
2026-04-25 12:13 -47.82423 -67.71584 33078 ft 413 kts 192°
2026-04-25 12:14 -47.85282 -67.71766 33210 ft 414 kts 191°
2026-04-25 12:14 -47.88161 -67.71950 33332 ft 415 kts 192°
2026-04-25 12:14 -47.91040 -67.72133 33465 ft 416 kts 191°
2026-04-25 12:14 -47.93951 -67.72319 33597 ft 417 kts 191°
2026-04-25 12:15 -47.96846 -67.72503 33744 ft 417 kts 191°
2026-04-25 12:15 -47.99730 -67.72689 33894 ft 417 kts 191°
2026-04-25 12:15 -48.02624 -67.72874 34029 ft 417 kts 191°
2026-04-25 12:15 -48.05489 -67.73057 34152 ft 418 kts 191°
2026-04-25 12:16 -48.08395 -67.73244 34283 ft 418 kts 191°
2026-04-25 12:16 -48.11310 -67.73431 34390 ft 419 kts 191°
2026-04-25 12:16 -48.17145 -67.73807 34599 ft 421 kts 190°
2026-04-25 12:17 -48.20113 -67.73998 34711 ft 422 kts 190°
2026-04-25 12:17 -48.23061 -67.74190 34691 ft 424 kts 190°
2026-04-25 12:17 -48.28930 -67.74567 34714 ft 424 kts 190°
2026-04-25 12:18 -48.34823 -67.74947 34720 ft 425 kts 190°
2026-04-25 12:18 -48.40745 -67.75330 34729 ft 425 kts 190°
2026-04-25 12:19 -48.49628 -67.75909 34723 ft 424 kts 190°
2026-04-25 12:20 -48.55518 -67.76292 34723 ft 425 kts 190°
2026-04-25 12:20 -48.61418 -67.76681 34707 ft 424 kts 190°
2026-04-25 12:21 -48.67314 -67.77068 34714 ft 425 kts 190°
2026-04-25 12:21 -48.73212 -67.77457 34705 ft 425 kts 190°
2026-04-25 12:22 -48.79165 -67.77850 34726 ft 426 kts 190°
2026-04-25 12:22 -48.85097 -67.78241 34724 ft 427 kts 190°
2026-04-25 12:23 -48.91043 -67.78635 34715 ft 427 kts 190°
2026-04-25 12:23 -48.96961 -67.79029 34696 ft 427 kts 190°
2026-04-25 12:24 -49.02898 -67.79422 34716 ft 426 kts 190°
2026-04-25 12:24 -49.08820 -67.79816 34719 ft 426 kts 190°
2026-04-25 12:25 -49.14708 -67.80209 34727 ft 427 kts 189°
2026-04-25 12:25 -49.20642 -67.80604 34720 ft 427 kts 189°
2026-04-25 12:26 -49.26229 -67.80978 34734 ft 429 kts 189°
2026-04-25 12:26 -49.32159 -67.81271 34730 ft 430 kts 187°
2026-04-25 12:27 -49.38129 -67.81176 34726 ft 431 kts 186°
2026-04-25 12:27 -49.44100 -67.81041 34730 ft 431 kts 186°
2026-04-25 12:28 -49.50113 -67.80908 34731 ft 432 kts 186°
2026-04-25 12:28 -49.56099 -67.80779 34724 ft 430 kts 186°
2026-04-25 12:29 -49.62120 -67.80650 34723 ft 431 kts 186°
2026-04-25 12:29 -49.68128 -67.80521 34723 ft 432 kts 186°
2026-04-25 12:30 -49.74098 -67.80416 34728 ft 431 kts 186°
2026-04-25 12:30 -49.80108 -67.80349 34715 ft 431 kts 186°
2026-04-25 12:31 -49.86063 -67.80279 34726 ft 430 kts 186°
2026-04-25 12:31 -49.92063 -67.80205 34733 ft 430 kts 186°
2026-04-25 12:32 -49.98010 -67.80131 34732 ft 431 kts 186°
2026-04-25 12:32 -50.04006 -67.80051 34740 ft 431 kts 186°
2026-04-25 12:33 -50.10023 -67.79971 34732 ft 432 kts 186°
2026-04-25 12:33 -50.16038 -67.79894 34738 ft 431 kts 186°
2026-04-25 12:34 -50.22029 -67.79816 34730 ft 432 kts 186°
2026-04-25 12:34 -50.28041 -67.79736 34742 ft 432 kts 186°
2026-04-25 12:35 -50.34043 -67.79657 34732 ft 431 kts 186°
2026-04-25 12:35 -50.40010 -67.79578 34735 ft 432 kts 186°
2026-04-25 12:36 -50.46034 -67.79496 34715 ft 432 kts 186°
2026-04-25 12:36 -50.52028 -67.79417 34713 ft 433 kts 186°
2026-04-25 12:37 -50.58028 -67.79337 34720 ft 433 kts 186°
2026-04-25 12:37 -50.64048 -67.79254 34723 ft 433 kts 186°
2026-04-25 12:38 -50.70060 -67.79175 34722 ft 434 kts 186°
2026-04-25 12:38 -50.76056 -67.79095 34728 ft 434 kts 185°
2026-04-25 12:39 -50.82078 -67.79014 34718 ft 433 kts 185°
2026-04-25 12:39 -50.88101 -67.78931 34722 ft 434 kts 185°
2026-04-25 12:40 -50.94089 -67.78849 34727 ft 434 kts 185°
2026-04-25 12:40 -51.00115 -67.78767 34725 ft 434 kts 185°
2026-04-25 12:41 -51.06150 -67.78686 34722 ft 434 kts 185°
2026-04-25 12:41 -51.12143 -67.78603 34726 ft 434 kts 185°
2026-04-25 12:42 -51.18161 -67.78519 34734 ft 434 kts 185°
2026-04-25 12:42 -51.24194 -67.78436 34736 ft 434 kts 185°
2026-04-25 12:43 -51.30219 -67.78355 34733 ft 434 kts 185°
2026-04-25 12:43 -51.39218 -67.78229 34728 ft 433 kts 185°
2026-04-25 12:44 -51.45222 -67.78146 34723 ft 433 kts 185°
2026-04-25 12:45 -51.54224 -67.78019 34720 ft 433 kts 185°
2026-04-25 12:45 -51.63227 -67.77894 34711 ft 433 kts 185°
2026-04-25 12:46 -51.69234 -67.77809 34706 ft 432 kts 184°
2026-04-25 12:46 -51.75235 -67.77725 34708 ft 432 kts 184°
2026-04-25 12:47 -51.81244 -67.77639 34706 ft 433 kts 184°
2026-04-25 12:47 -51.87259 -67.77551 34709 ft 433 kts 185°
2026-04-25 12:48 -51.93233 -67.77467 34705 ft 433 kts 185°
2026-04-25 12:48 -51.99281 -67.77383 34697 ft 433 kts 185°
2026-04-25 12:49 -52.05318 -67.77296 34697 ft 432 kts 184°
2026-04-25 12:49 -52.11351 -67.77211 34696 ft 432 kts 184°
2026-04-25 12:50 -52.17368 -67.77123 34694 ft 432 kts 184°
2026-04-25 12:50 -52.23407 -67.77035 34688 ft 432 kts 184°
2026-04-25 12:51 -52.29387 -67.76949 34688 ft 433 kts 184°
2026-04-25 12:51 -52.35393 -67.76862 34678 ft 433 kts 184°
2026-04-25 12:52 -52.41439 -67.76773 34686 ft 433 kts 184°
2026-04-25 12:52 -52.47449 -67.76683 34689 ft 433 kts 184°
2026-04-25 12:53 -52.53451 -67.76592 34685 ft 433 kts 184°
2026-04-25 12:53 -52.59436 -67.76501 34684 ft 433 kts 184°
2026-04-25 12:54 -52.65450 -67.76409 34675 ft 433 kts 184°
2026-04-25 12:54 -52.71480 -67.76320 34670 ft 433 kts 184°
2026-04-25 12:55 -52.76498 -67.76251 34664 ft 433 kts 184°
2026-04-25 12:55 -52.83511 -67.76146 34654 ft 433 kts 183°
2026-04-25 12:56 -52.89491 -67.76051 34648 ft 433 kts 183°
2026-04-25 12:56 -52.95496 -67.75955 34654 ft 434 kts 183°
2026-04-25 12:57 -53.01510 -67.75860 34645 ft 434 kts 183°
2026-04-25 12:57 -53.07554 -67.75763 34645 ft 434 kts 183°
2026-04-25 12:58 -53.13564 -67.75667 34647 ft 434 kts 183°
2026-04-25 12:58 -53.19592 -67.75571 34642 ft 433 kts 183°
2026-04-25 12:59 -53.25587 -67.75473 34643 ft 433 kts 183°
2026-04-25 12:59 -53.31577 -67.75375 34194 ft 433 kts 183°
2026-04-25 13:00 -53.34590 -67.75325 33500 ft 438 kts 183°
2026-04-25 13:00 -53.35642 -67.75308 33296 ft 440 kts 183°
2026-04-25 13:00 -53.40865 -67.75219 32451 ft 445 kts 183°
2026-04-25 13:00 -53.43960 -67.75166 32021 ft 445 kts 184°
2026-04-25 13:01 -53.47065 -67.75113 31601 ft 443 kts 184°
2026-04-25 13:01 -53.50092 -67.75060 31276 ft 438 kts 184°
2026-04-25 13:01 -53.53135 -67.75008 30825 ft 434 kts 184°
2026-04-25 13:01 -53.56187 -67.74958 30349 ft 430 kts 184°
2026-04-25 13:02 -53.59190 -67.74909 29881 ft 426 kts 184°
2026-04-25 13:02 -53.62126 -67.74862 29412 ft 423 kts 184°
2026-04-25 13:02 -53.65060 -67.74812 28948 ft 419 kts 184°
2026-04-25 13:02 -53.67949 -67.74763 28486 ft 415 kts 184°
2026-04-25 13:03 -53.70838 -67.74714 27958 ft 411 kts 184°
2026-04-25 13:03 -53.73695 -67.74666 27422 ft 408 kts 184°
2026-04-25 13:03 -53.76546 -67.74616 26885 ft 404 kts 183°
2026-04-25 13:03 -53.79383 -67.74423 26337 ft 402 kts 181°
2026-04-25 13:04 -53.82185 -67.74142 25803 ft 399 kts 181°
2026-04-25 13:04 -53.84942 -67.73846 25266 ft 396 kts 180°
2026-04-25 13:04 -53.87687 -67.73550 24704 ft 393 kts 180°
2026-04-25 13:04 -53.90401 -67.73259 24164 ft 391 kts 180°
2026-04-25 13:05 -53.93075 -67.72974 23621 ft 388 kts 180°
2026-04-25 13:05 -53.95784 -67.72683 23044 ft 384 kts 180°
2026-04-25 13:05 -53.98423 -67.72401 22533 ft 381 kts 179°
2026-04-25 13:05 -54.01089 -67.72115 21989 ft 378 kts 179°
2026-04-25 13:06 -54.03711 -67.71835 21466 ft 375 kts 179°
2026-04-25 13:06 -54.06318 -67.71554 20937 ft 371 kts 179°
2026-04-25 13:06 -54.08887 -67.71278 20422 ft 368 kts 179°
2026-04-25 13:06 -54.11478 -67.70998 19889 ft 365 kts 179°
2026-04-25 13:07 -54.14042 -67.70721 19363 ft 362 kts 178°
2026-04-25 13:07 -54.16570 -67.70446 18858 ft 359 kts 178°
2026-04-25 13:07 -54.19078 -67.70173 18338 ft 357 kts 178°
2026-04-25 13:07 -54.21561 -67.69903 17731 ft 357 kts 179°
2026-04-25 13:08 -54.24062 -67.69631 17234 ft 353 kts 178°
2026-04-25 13:08 -54.26497 -67.69366 16790 ft 349 kts 178°
2026-04-25 13:08 -54.28934 -67.69100 16352 ft 345 kts 179°
2026-04-25 13:08 -54.31298 -67.68841 15941 ft 340 kts 179°
2026-04-25 13:09 -54.33655 -67.68584 15535 ft 336 kts 179°
2026-04-25 13:09 -54.35992 -67.68330 15120 ft 332 kts 179°
2026-04-25 13:09 -54.38290 -67.68078 14706 ft 329 kts 179°
2026-04-25 13:09 -54.40540 -67.67831 14307 ft 325 kts 179°
2026-04-25 13:10 -54.42794 -67.67584 13909 ft 321 kts 179°
2026-04-25 13:10 -54.45008 -67.67340 13607 ft 314 kts 179°
2026-04-25 13:10 -54.47124 -67.67104 13587 ft 298 kts 179°
2026-04-25 13:10 -54.49141 -67.66880 13585 ft 283 kts 179°
2026-04-25 13:11 -54.51049 -67.66669 13417 ft 274 kts 179°
2026-04-25 13:11 -54.52949 -67.66464 12876 ft 277 kts 180°
2026-04-25 13:11 -54.54877 -67.66255 12361 ft 279 kts 180°
2026-04-25 13:11 -54.56820 -67.66042 11858 ft 281 kts 180°
2026-04-25 13:12 -54.58756 -67.65829 11369 ft 282 kts 180°
2026-04-25 13:12 -54.60720 -67.65613 10859 ft 283 kts 180°
2026-04-25 13:12 -54.62671 -67.65398 10350 ft 284 kts 180°
2026-04-25 13:12 -54.63988 -67.65252 10061 ft 283 kts 180°
2026-04-25 13:13 -54.66534 -67.64967 9934 ft 265 kts 180°
2026-04-25 13:13 -54.68330 -67.64760 9726 ft 257 kts 180°
2026-04-25 13:13 -54.70099 -67.64558 9326 ft 253 kts 180°
2026-04-25 13:13 -54.71855 -67.64362 8813 ft 251 kts 180°
2026-04-25 13:14 -54.73579 -67.64169 8308 ft 249 kts 180°
2026-04-25 13:14 -54.75278 -67.63985 7825 ft 247 kts 180°
2026-04-25 13:14 -54.76996 -67.63801 7335 ft 244 kts 180°
2026-04-25 13:14 -54.78656 -67.63670 6972 ft 238 kts 187°
2026-04-25 13:15 -54.80131 -67.64541 6886 ft 218 kts 217°
2026-04-25 13:15 -54.81168 -67.66412 6560 ft 213 kts 234°
2026-04-25 13:15 -54.81764 -67.68735 6167 ft 213 kts 254°
2026-04-25 13:15 -54.81936 -67.71275 5815 ft 210 kts 261°
2026-04-25 13:16 -54.82032 -67.73670 5815 ft 188 kts 261°
2026-04-25 13:16 -54.82117 -67.75822 5685 ft 171 kts 259°
2026-04-25 13:16 -54.82252 -67.77827 5372 ft 164 kts 257°
2026-04-25 13:16 -54.82386 -67.79697 5246 ft 150 kts 258°
2026-04-25 13:17 -54.82501 -67.81489 5244 ft 149 kts 258°
2026-04-25 13:17 -54.82600 -67.83240 5167 ft 142 kts 259°
2026-04-25 13:17 -54.82682 -67.84907 5052 ft 135 kts 259°
2026-04-25 13:17 -54.82754 -67.86523 5059 ft 135 kts 259°
2026-04-25 13:18 -54.82820 -67.88175 5055 ft 135 kts 259°
2026-04-25 13:18 -54.82882 -67.89799 5053 ft 134 kts 260°
2026-04-25 13:18 -54.82940 -67.91404 4747 ft 135 kts 261°
2026-04-25 13:18 -54.82995 -67.93045 4595 ft 135 kts 261°
2026-04-25 13:19 -54.83049 -67.94667 4449 ft 136 kts 261°
2026-04-25 13:19 -54.83104 -67.96291 4275 ft 136 kts 262°
2026-04-25 13:19 -54.83158 -67.97938 4086 ft 136 kts 262°
2026-04-25 13:19 -54.83176 -67.98480 4012 ft 137 kts 261°
2026-04-25 13:20 -54.83271 -68.01238 3643 ft 137 kts 262°
2026-04-25 13:20 -54.83328 -68.02879 3427 ft 136 kts 262°
2026-04-25 13:20 -54.83385 -68.04504 3205 ft 136 kts 262°
2026-04-25 13:20 -54.83443 -68.06127 2988 ft 135 kts 262°
2026-04-25 13:21 -54.83503 -68.07753 2769 ft 135 kts 263°
2026-04-25 13:21 -54.83564 -68.09396 2550 ft 136 kts 263°
2026-04-25 13:21 -54.83625 -68.11032 2336 ft 135 kts 264°
2026-04-25 13:21 -54.83686 -68.12679 2117 ft 136 kts 264°
2026-04-25 13:22 -54.83747 -68.14298 1888 ft 136 kts 265°
2026-04-25 13:22 -54.83809 -68.15968 1667 ft 137 kts 265°
2026-04-25 13:22 -54.83870 -68.17602 1459 ft 135 kts 265°
2026-04-25 13:23 -54.83992 -68.20818 1020 ft 132 kts 264°
2026-04-25 13:23 -54.84053 -68.22417 804 ft 131 kts 265°
2026-04-25 13:23 -54.84113 -68.23984 593 ft 130 kts 265°
2026-04-25 13:23 -54.84173 -68.25542 383 ft 129 kts 264°
2026-04-25 13:24 -54.84242 -68.27082 148 ft 127 kts 266°
2026-04-25 13:24 -54.84296 -68.28570 59 ft 114 kts 267°
2026-04-25 13:24 -54.84336 -68.29710 55 ft 75 kts 266°
2026-04-25 13:24 -54.84365 -68.30448 53 ft 54 kts 266°
2026-04-25 13:25 -54.84373 -68.30729 52 ft 16 kts 270°
2026-04-25 13:25 -54.84375 -68.30910 52 ft 10 kts 278°
2026-04-25 13:25 -54.84351 -68.30943 53 ft 2 kts 340°
2026-04-25 13:25 -54.84330 -68.30952 54 ft 3 kts 347°
2026-04-25 13:26 -54.84291 -68.30961 54 ft 8 kts 356°
2026-04-25 13:26 -54.84210 -68.30969 52 ft 14 kts 356°
2026-04-25 13:26 -54.84134 -68.30976 51 ft 1 kts 355°
2026-04-25 13:26 -54.84102 -68.31039 51 ft 9 kts 285°
2026-04-25 13:27 -54.84094 -68.31160 50 ft 7 kts 269°
2026-04-25 13:27 -54.84084 -68.31181 50 ft 3 kts 352°
2026-04-25 13:27 -54.84046 -68.31185 50 ft 7 kts 356°
2026-04-25 13:27 -54.84022 -68.31187 50 ft 0 kts 354°